Simultaneous Nadir Overpasses (SNOs) Predictions

Prediction of SNOs between METOP-C and LANDSAT-8 Satellite Orbit:

Table of predicted SNOs for the next 14.0 days since TLE Epoch: 4/13/2019
Index Date (METOP-C) Time (METOP-C) Lat,Lon (METOP-C) SZA (METOP-C ) Date (LANDSAT-8) Time (LANDSAT-8) Lat,Lon (LANDSAT-8) SZA (LANDSAT-8 ) Distance(km) Time Diff (sec)
1 04/14/2019 18:49:49 -81.06, 115.78 106.53 04/14/2019 18:50:46 -81.06, 115.82 106.50 0.97 57
2 04/14/2019 19:40:28 81.09, -76.04 73.57 04/14/2019 19:40:11 81.09, -76.13 73.56 1.62 17
3 04/17/2019 14:24:13 -81.06,-177.77 107.50 04/17/2019 14:25:00 -81.06,-177.71 107.47 1.34 47
4 04/17/2019 15:14:52 81.09, -9.64 72.60 04/17/2019 15:14:25 81.09, -9.69 72.58 0.85 27
5 04/20/2019 09:58:36 -81.06,-111.32 108.45 04/20/2019 09:59:13 -81.06,-111.27 108.43 1.02 37
6 04/20/2019 10:49:15 81.09, 56.75 71.64 04/20/2019 10:48:38 81.09, 56.72 71.62 0.57 37
7 04/23/2019 05:33:00 -81.06, -44.87 109.38 04/23/2019 05:33:27 -81.06, -44.87 109.37 0.07 27
8 04/23/2019 06:23:39 81.09, 123.15 70.70 04/23/2019 06:22:52 81.08, 123.10 70.68 0.93 47
9 04/26/2019 01:07:24 -81.06, 21.58 110.28 04/26/2019 01:07:41 -81.06, 21.49 110.29 1.69 17




NCC Satellite Simultaneous Nadir Overpasses (SNOs) Prediction Service
